DW3201 Weather Reports


time (UTC)temp
C
wind
direction
speed
KPH
gust
KPH
rain 1hr
cm
rain 24hr
cm
rain mn
cm
humidity
%
barometer
mb
20260903044603 23 0 0.0 0.0 0.00 0.00 0.00 95 1013.0
20260903043103 23 0 0.0 0.0 0.00 0.00 0.00 95 1012.9
20260903041610 23 0 0.0 0.0 0.00 0.00 0.00 94 1012.7
20260903040110 23 0 0.0 1.6 0.00 0.00 0.00 94 1012.6
20260903034609 24 0 0.0 0.0 0.00 0.00 0.00 94 1012.6
20260903033100 24 0 0.0 0.0 0.00 0.00 0.00 94 1012.6
20260903031600 24 0 0.0 0.0 0.00 0.00 0.00 94 1012.5
20260903030100 25 0 0.0 0.0 0.00 0.00 0.00 94 1012.6
20260903024601 25 0 0.0 0.0 0.00 0.00 0.00 93 1012.7
20260903023057 25 0 0.0 0.0 0.00 0.00 0.00 93 1012.7
20260903021600 25 0 0.0 0.0 0.00 0.00 0.00 93 1012.5
20260903014626 25 0 0.0 0.0 0.00 0.00 0.00 92 1012.3
20260903013108 25 0 0.0 0.0 0.00 0.00 0.00 91 1012.2
20260903011601 26 0 0.0 0.0 0.00 0.00 0.00 91 1012.0
20260903010059 26 0 0.0 0.0 0.00 0.00 0.00 90 1011.8
20260903004602 26 0 0.0 0.0 0.00 0.00 0.00 88 1011.6
20260903003114 27 0 0.0 0.0 0.00 0.00 0.00 87 1011.6
20260903001600 28 0 0.0 0.0 0.00 0.00 0.00 85 1011.7
20260903000108 29 0 0.0 0.0 0.00 0.00 0.00 81 1011.7
20260902234604 30 0 0.0 0.0 0.00 0.00 0.00 81 1011.8
20260902233059 30 0 0.0 0.0 0.00 0.00 0.00 79 1011.9
20260902231601 30 0 0.0 0.0 0.00 0.00 0.00 80 1011.8
20260902230119 30 0 0.0 0.0 0.00 0.00 0.00 80 1011.8
20260902224613 30 0 0.0 0.0 0.00 0.00 0.00 78 1011.8
20260902223114 30 0 0.0 0.0 0.00 0.00 0.00 77 1011.9
20260902221608 30 0 0.0 0.0 0.00 0.00 0.00 76 1012.0
20260902220056 30 0 0.0 1.6 0.00 0.00 0.00 74 1012.1
20260902214622 31 262 0.0 1.6 0.00 0.00 0.00 71 1011.8
20260902213059 31 0 0.0 1.6 0.00 0.00 0.00 72 1012.0
20260902211558 31 0 0.0 1.6 0.00 0.00 0.00 68 1012.1
20260902210058 31 253 0.0 1.6 0.00 0.00 0.00 70 1012.1
20260902204610 31 0 0.0 3.2 0.00 0.03 0.00 69 1012.2
20260902203101 31 256 0.0 3.2 0.00 0.03 0.00 66 1012.1
20260902201629 31 246 1.6 4.8 0.00 0.03 0.00 64 1012.1
20260902200058 32 0 1.6 3.2 0.00 0.03 0.00 64 1012.3
20260902194558 31 257 1.6 4.8 0.00 0.10 0.00 65 1012.5
20260902193104 31 280 1.6 6.4 0.00 0.10 0.00 64 1012.5
20260902191600 31 276 1.6 9.7 0.00 0.10 0.00 61 1012.7
20260902190100 31 259 0.0 9.7 0.00 0.10 0.00 63 1012.7
20260902184645 32 243 1.6 4.8 0.00 0.10 0.00 63 1012.8
20260902183105 31 0 1.6 8.0 0.00 0.10 0.00 64 1012.8
20260902181603 31 253 0.0 3.2 0.00 0.10 0.00 65 1012.9
20260902180113 31 245 0.0 6.4 0.00 0.10 0.00 66 1013.0
20260902174609 30 255 3.2 8.0 0.00 0.10 0.00 65 1013.3
20260902173107 31 0 0.0 8.0 0.00 0.10 0.00 66 1013.3
20260902171602 30 0 0.0 4.8 0.00 0.10 0.00 67 1013.3
20260902170105 30 264 3.2 4.8 0.00 0.10 0.00 68 1013.4
20260902164605 30 257 0.0 1.6 0.00 0.10 0.00 70 1013.3
20260902163120 29 260 0.0 1.6 0.00 0.10 0.00 74 1013.5
20260902161605 28 0 0.0 4.8 0.00 0.10 0.00 78 1013.5
20260902160059 27 0 0.0 6.4 0.00 0.10 0.00 79 1013.3
20260902154607 27 94 3.2 11.3 0.00 0.13 0.00 80 1013.2
20260902153104 26 78 4.8 9.7 0.00 0.13 0.00 81 1013.3
20260902151603 26 82 4.8 9.7 0.00 0.13 0.00 80 1013.4
20260902150103 26 108 6.4 12.9 0.00 0.13 0.00 81 1013.4
20260902144602 25 108 6.4 14.5 0.00 0.13 0.00 82 1013.6
20260902143107 25 93 6.4 11.3 0.00 0.13 0.00 83 1013.6
20260902141603 24 71 3.2 9.7 0.00 0.13 0.00 84 1013.9
20260902140107 24 78 1.6 4.8 0.00 0.13 0.00 84 1014.2
20260902134601 24 65 0.0 3.2 0.00 0.13 0.00 84 1014.3
20260902133105 23 77 4.8 8.0 0.00 0.13 0.00 85 1014.1
20260902131608 23 99 6.4 9.7 0.00 0.13 0.00 87 1014.3
20260902124606 22 0 1.6 3.2 0.00 0.13 0.00 93 1014.6
20260902123106 22 0 0.0 1.6 0.00 0.13 0.00 94 1014.7
20260902121609 22 198 0.0 1.6 0.00 0.13 0.00 94 1014.6
20260902120121 22 110 1.6 8.0 0.00 0.13 0.00 94 1014.6
20260902114602 22 0 0.0 0.0 0.00 0.13 0.00 94 1014.1
20260902113108 22 273 0.0 3.2 0.00 0.13 0.00 94 1014.1
20260902111625 22 0 0.0 0.0 0.00 0.13 0.00 93 1013.3
20260902110103 22 249 0.0 1.6 0.00 0.13 0.00 93 1013.4
20260902104615 22 0 0.0 0.0 0.00 0.13 0.00 93 1013.5
20260902103123 22 255 0.0 1.6 0.00 0.13 0.00 92 1013.5
20260902101603 22 0 0.0 3.2 0.00 0.13 0.00 91 1013.4
20260902100110 22 218 0.0 4.8 0.00 0.13 0.00 91 1013.6
20260902094606 23 195 0.0 4.8 0.00 0.13 0.00 91 1013.6
20260902093105 22 278 1.6 3.2 0.00 0.13 0.00 95 1013.3
20260902091610 22 0 0.0 1.6 0.00 0.13 0.00 95 1013.3
20260902090104 22 0 0.0 0.0 0.00 0.13 0.00 95 1013.3
20260902084607 22 0 0.0 0.0 0.00 0.13 0.00 95 1013.4
20260902083114 22 0 0.0 0.0 0.00 0.13 0.00 95 1013.4
20260902081601 22 0 0.0 0.0 0.00 0.13 0.00 95 1013.3
20260902080059 22 0 0.0 0.0 0.00 0.13 0.00 95 1013.1
20260902074619 23 0 0.0 0.0 0.00 0.13 0.00 95 1013.2
20260902073059 23 0 0.0 0.0 0.00 0.13 0.00 95 1013.2
20260902071602 23 0 0.0 0.0 0.00 0.13 0.00 95 1013.1
20260902070106 23 0 0.0 0.0 0.00 0.13 0.00 95 1013.2
20260902064601 23 0 0.0 0.0 0.00 0.13 0.00 95 1013.3
20260902063103 23 0 0.0 0.0 0.00 0.13 0.00 94 1013.3
20260902061603 23 0 0.0 0.0 0.00 0.13 0.00 95 1013.3
20260902060107 23 0 0.0 0.0 0.00 0.13 0.00 94 1013.5
20260902054609 23 0 0.0 1.6 0.00 0.13 0.00 95 1013.4
20260902053113 23 0 0.0 1.6 0.00 0.13 0.00 95 1013.3
20260902051624 23 0 0.0 0.0 0.00 0.13 0.00 95 1013.2
20260902050110 23 0 0.0 0.0 0.00 0.13 0.00 95 1013.1